| time (UTC) | temp F | wind direction | speed MPH | gust MPH | rain 1hr in | rain 24hr in | rain mn in | humidity % | barometer mb |
| 20260506155007 | 51 | 42 | 0.0 | 1.0 | 0.04 | 0.26 | 0.26 | 93 | 1009.1 |
| 20260506154506 | 51 | 57 | 0.0 | 3.0 | 0.05 | 0.26 | 0.26 | 94 | 1009.1 |
| 20260506154006 | 51 | 26 | 0.0 | 3.0 | 0.04 | 0.25 | 0.25 | 94 | 1009.2 |
| 20260506153506 | 51 | 10 | 0.0 | 0.0 | 0.04 | 0.25 | 0.25 | 93 | 1009.1 |
| 20260506153006 | 51 | 353 | 0.0 | 4.0 | 0.04 | 0.25 | 0.25 | 93 | 1009.2 |
| 20260506152506 | 51 | 339 | 1.0 | 3.0 | 0.05 | 0.25 | 0.25 | 93 | 1009.2 |
| 20260506152006 | 51 | 351 | 0.0 | 2.0 | 0.04 | 0.24 | 0.24 | 93 | 1009.2 |
| 20260506151506 | 51 | 6 | 0.0 | 2.0 | 0.05 | 0.24 | 0.24 | 93 | 1009.2 |
| 20260506151006 | 51 | 14 | 0.0 | 4.0 | 0.04 | 0.23 | 0.23 | 93 | 1009.1 |
| 20260506150506 | 51 | 13 | 0.0 | 4.0 | 0.04 | 0.23 | 0.23 | 93 | 1009.2 |
| 20260506150006 | 51 | 1 | 0.0 | 5.0 | 0.03 | 0.22 | 0.22 | 93 | 1009.1 |
| 20260506145506 | 51 | 0 | 1.0 | 4.0 | 0.04 | 0.22 | 0.22 | 92 | 1009.1 |
| 20260506145007 | 51 | 15 | 0.0 | 3.0 | 0.04 | 0.22 | 0.22 | 93 | 1009.1 |
| 20260506144506 | 51 | 41 | 2.0 | 3.0 | 0.04 | 0.21 | 0.21 | 93 | 1009.0 |
| 20260506144006 | 51 | 47 | 0.0 | 4.0 | 0.04 | 0.21 | 0.21 | 93 | 1009.1 |
| 20260506143506 | 51 | 61 | 1.0 | 5.0 | 0.04 | 0.21 | 0.21 | 92 | 1009.0 |
| 20260506143006 | 52 | 13 | 2.0 | 4.0 | 0.05 | 0.21 | 0.21 | 93 | 1009.0 |
| 20260506142506 | 51 | 16 | 0.0 | 2.0 | 0.04 | 0.20 | 0.20 | 92 | 1008.9 |
| 20260506142006 | 51 | 19 | 0.0 | 3.0 | 0.05 | 0.20 | 0.20 | 92 | 1008.9 |
| 20260506141505 | 51 | 21 | 1.0 | 2.0 | 0.04 | 0.19 | 0.19 | 92 | 1009.0 |
| 20260506141005 | 52 | 21 | 2.0 | 5.0 | 0.04 | 0.19 | 0.19 | 92 | 1009.0 |
| 20260506140505 | 51 | 12 | 0.0 | 5.0 | 0.05 | 0.19 | 0.19 | 92 | 1009.0 |
| 20260506140005 | 52 | 23 | 2.0 | 2.0 | 0.05 | 0.19 | 0.19 | 92 | 1009.0 |
| 20260506135505 | 52 | 50 | 0.0 | 1.0 | 0.04 | 0.18 | 0.18 | 92 | 1009.0 |
| 20260506135006 | 52 | 65 | 1.0 | 2.0 | 0.05 | 0.18 | 0.18 | 92 | 1009.0 |
| 20260506134505 | 52 | 78 | 0.0 | 0.0 | 0.04 | 0.17 | 0.17 | 91 | 1008.9 |
| 20260506134005 | 52 | 32 | 0.0 | 3.0 | 0.04 | 0.17 | 0.17 | 91 | 1009.0 |
| 20260506133505 | 52 | 22 | 0.0 | 4.0 | 0.04 | 0.17 | 0.17 | 91 | 1009.0 |
| 20260506133005 | 52 | 22 | 1.0 | 3.0 | 0.04 | 0.16 | 0.16 | 91 | 1009.0 |
| 20260506132505 | 52 | 28 | 1.0 | 2.0 | 0.04 | 0.16 | 0.16 | 91 | 1009.0 |
| 20260506132005 | 52 | 37 | 0.0 | 3.0 | 0.03 | 0.15 | 0.15 | 90 | 1009.0 |
| 20260506131505 | 52 | 25 | 0.0 | 3.0 | 0.04 | 0.15 | 0.15 | 91 | 1008.9 |
| 20260506131005 | 52 | 24 | 2.0 | 4.0 | 0.04 | 0.15 | 0.15 | 91 | 1008.9 |
| 20260506130505 | 52 | 7 | 0.0 | 3.0 | 0.04 | 0.14 | 0.14 | 91 | 1008.8 |
| 20260506130005 | 52 | 352 | 0.0 | 4.0 | 0.04 | 0.14 | 0.14 | 91 | 1008.8 |
| 20260506125505 | 52 | 3 | 0.0 | 3.0 | 0.05 | 0.14 | 0.14 | 91 | 1008.8 |
| 20260506125006 | 52 | 337 | 0.0 | 4.0 | 0.04 | 0.13 | 0.13 | 91 | 1008.8 |
| 20260506124505 | 52 | 324 | 0.0 | 4.0 | 0.05 | 0.13 | 0.13 | 91 | 1008.8 |
| 20260506124005 | 52 | 322 | 2.0 | 5.0 | 0.05 | 0.13 | 0.13 | 90 | 1008.8 |
| 20260506123505 | 52 | 334 | 0.0 | 0.0 | 0.06 | 0.13 | 0.13 | 90 | 1008.8 |
| 20260506123005 | 52 | 349 | 0.0 | 2.0 | 0.05 | 0.12 | 0.12 | 90 | 1008.8 |
| 20260506122505 | 52 | 9 | 0.0 | 2.0 | 0.06 | 0.12 | 0.12 | 90 | 1008.7 |
| 20260506122006 | 52 | 2 | 2.0 | 9.0 | 0.06 | 0.12 | 0.12 | 89 | 1008.7 |
| 20260506121506 | 52 | 355 | 1.0 | 2.0 | 0.05 | 0.11 | 0.11 | 89 | 1008.7 |
| 20260506121006 | 52 | 357 | 1.0 | 4.0 | 0.05 | 0.11 | 0.11 | 89 | 1008.7 |
| 20260506120506 | 52 | 1 | 1.0 | 2.0 | 0.05 | 0.10 | 0.10 | 89 | 1008.6 |
| 20260506120005 | 52 | 13 | 2.0 | 3.0 | 0.05 | 0.10 | 0.10 | 89 | 1008.6 |
| 20260506115505 | 52 | 16 | 0.0 | 1.0 | 0.04 | 0.09 | 0.09 | 89 | 1008.6 |
| 20260506115006 | 52 | 21 | 2.0 | 4.0 | 0.04 | 0.09 | 0.09 | 88 | 1008.5 |
| 20260506114505 | 52 | 14 | 1.0 | 2.0 | 0.04 | 0.08 | 0.08 | 88 | 1008.5 |
| 20260506114005 | 52 | 13 | 1.0 | 4.0 | 0.04 | 0.08 | 0.08 | 88 | 1008.5 |
| 20260506113505 | 52 | 21 | 2.0 | 5.0 | 0.03 | 0.07 | 0.07 | 88 | 1008.5 |
| 20260506113005 | 52 | 13 | 2.0 | 3.0 | 0.03 | 0.07 | 0.07 | 88 | 1008.5 |
| 20260506112505 | 52 | 28 | 2.0 | 5.0 | 0.03 | 0.06 | 0.06 | 88 | 1008.5 |
| 20260506112005 | 52 | 36 | 1.0 | 5.0 | 0.03 | 0.06 | 0.06 | 88 | 1008.5 |
| 20260506111505 | 52 | 357 | 1.0 | 3.0 | 0.03 | 0.06 | 0.06 | 87 | 1008.5 |
| 20260506111005 | 52 | 333 | 0.0 | 5.0 | 0.03 | 0.06 | 0.06 | 87 | 1008.4 |
| 20260506110505 | 52 | 331 | 0.0 | 2.0 | 0.02 | 0.05 | 0.05 | 87 | 1008.5 |
| 20260506110005 | 52 | 330 | 0.0 | 0.0 | 0.03 | 0.05 | 0.05 | 87 | 1008.5 |
| 20260506105505 | 52 | 343 | 0.0 | 2.0 | 0.03 | 0.05 | 0.05 | 86 | 1008.5 |
| 20260506105006 | 52 | 346 | 1.0 | 2.0 | 0.03 | 0.05 | 0.05 | 86 | 1008.4 |
| 20260506104505 | 52 | 342 | 0.0 | 2.0 | 0.02 | 0.04 | 0.04 | 86 | 1008.5 |
| 20260506104005 | 52 | 349 | 0.0 | 2.0 | 0.02 | 0.04 | 0.04 | 85 | 1008.5 |
| 20260506103505 | 52 | 353 | 0.0 | 4.0 | 0.03 | 0.04 | 0.04 | 85 | 1008.4 |
| 20260506103005 | 52 | 357 | 0.0 | 4.0 | 0.03 | 0.04 | 0.04 | 85 | 1008.4 |
| 20260506102505 | 52 | 0 | 2.0 | 4.0 | 0.02 | 0.03 | 0.03 | 85 | 1008.4 |
| 20260506102005 | 52 | 17 | 0.0 | 3.0 | 0.02 | 0.03 | 0.03 | 85 | 1008.4 |
| 20260506101505 | 51 | 19 | 2.0 | 5.0 | 0.03 | 0.03 | 0.03 | 84 | 1008.4 |
| 20260506101005 | 51 | 29 | 3.0 | 6.0 | 0.03 | 0.03 | 0.03 | 83 | 1008.4 |
| 20260506100505 | 52 | 31 | 1.0 | 5.0 | 0.03 | 0.03 | 0.03 | 84 | 1008.3 |
| 20260506100005 | 52 | 27 | 1.0 | 5.0 | 0.02 | 0.02 | 0.02 | 83 | 1008.4 |
| 20260506095505 | 52 | 31 | 3.0 | 9.0 | 0.02 | 0.02 | 0.02 | 83 | 1008.4 |
| 20260506095006 | 52 | 36 | 0.0 | 3.0 | 0.02 | 0.02 | 0.02 | 83 | 1008.3 |
| 20260506094505 | 52 | 34 | 2.0 | 8.0 | 0.02 | 0.02 | 0.02 | 82 | 1008.3 |
| 20260506094005 | 53 | 31 | 3.0 | 8.0 | 0.02 | 0.02 | 0.02 | 81 | 1008.3 |
| 20260506093505 | 53 | 24 | 2.0 | 7.0 | 0.01 | 0.01 | 0.01 | 81 | 1008.3 |
| 20260506093005 | 53 | 22 | 3.0 | 6.0 | 0.01 | 0.01 | 0.01 | 80 | 1008.2 |
| 20260506092505 | 53 | 20 | 4.0 | 7.0 | 0.01 | 0.01 | 0.01 | 79 | 1008.2 |
| 20260506092005 | 53 | 30 | 3.0 | 8.0 | 0.01 | 0.01 | 0.01 | 76 | 1008.1 |
| 20260506091505 | 54 | 354 | 0.0 | 3.0 | 0.00 | 0.00 | 0.00 | 78 | 1008.1 |
| 20260506090505 | 54 | 24 | 3.0 | 9.0 | 0.00 | 0.00 | 0.00 | 73 | 1008.1 |
| 20260506090005 | 54 | 29 | 1.0 | 3.0 | 0.00 | 0.00 | 0.00 | 74 | 1008.1 |
| 20260506085505 | 54 | 27 | 4.0 | 9.0 | 0.00 | 0.00 | 0.00 | 73 | 1008.1 |
| 20260506085006 | 54 | 32 | 4.0 | 8.0 | 0.00 | 0.00 | 0.00 | 70 | 1008.0 |
| 20260506084505 | 54 | 53 | 2.0 | 8.0 | 0.00 | 0.00 | 0.00 | 72 | 1008.0 |
| 20260506084005 | 53 | 27 | 3.0 | 8.0 | 0.00 | 0.00 | 0.00 | 71 | 1007.9 |
| 20260506083505 | 53 | 33 | 2.0 | 7.0 | 0.00 | 0.00 | 0.00 | 71 | 1007.9 |
| 20260506083005 | 53 | 18 | 1.0 | 10.0 | 0.00 | 0.00 | 0.00 | 72 | 1007.8 |
| 20260506082505 | 53 | 17 | 1.0 | 7.0 | 0.00 | 0.00 | 0.00 | 73 | 1007.8 |
| 20260506082005 | 53 | 22 | 3.0 | 8.0 | 0.00 | 0.00 | 0.00 | 71 | 1007.7 |
| 20260506081505 | 53 | 23 | 3.0 | 6.0 | 0.00 | 0.00 | 0.00 | 71 | 1007.6 |
| 20260506081006 | 53 | 29 | 1.0 | 8.0 | 0.00 | 0.00 | 0.00 | 73 | 1007.5 |
| 20260506080505 | 53 | 23 | 1.0 | 7.0 | 0.00 | 0.00 | 0.00 | 73 | 1007.6 |
| 20260506073506 | 52 | 19 | 2.0 | 7.0 | 0.00 | 0.00 | 0.00 | 76 | 1007.5 |
| 20260506073006 | 52 | 359 | 3.0 | 10.0 | 0.00 | 0.00 | 0.00 | 76 | 1007.4 |
| 20260506072506 | 51 | 19 | 1.0 | 3.0 | 0.00 | 0.00 | 0.00 | 77 | 1007.4 |
| 20260506072006 | 51 | 23 | 3.0 | 8.0 | 0.00 | 0.00 | 0.00 | 76 | 1007.5 |
| 20260506071506 | 51 | 21 | 4.0 | 9.0 | 0.00 | 0.00 | 0.00 | 76 | 1007.5 |
| 20260506071005 | 51 | 104 | 6.0 | 11.0 | 0.00 | 0.00 | 0.00 | 75 | 1007.5 |
| 20260506070505 | 51 | 15 | 4.0 | 8.0 | 0.00 | 0.00 | 0.00 | 76 | 1007.5 |
| 20260506062505 | 51 | 11 | 2.0 | 7.0 | 0.00 | 0.00 | 0.00 | 79 | 1007.4 |
| 20260506062005 | 51 | 12 | 1.0 | 6.0 | 0.00 | 0.00 | 0.00 | 80 | 1007.4 |
| 20260506061505 | 51 | 354 | 2.0 | 8.0 | 0.00 | 0.00 | 0.00 | 80 | 1007.4 |
| 20260506061005 | 51 | 302 | 0.0 | 7.0 | 0.00 | 0.00 | 0.00 | 80 | 1007.4 |
| 20260506060505 | 51 | 14 | 1.0 | 5.0 | 0.00 | 0.00 | 0.00 | 81 | 1007.4 |
| 20260506051006 | 51 | 17 | 1.0 | 2.0 | 0.00 | 0.00 | 0.00 | 83 | 1007.4 |
| 20260506050506 | 51 | 11 | 1.0 | 4.0 | 0.00 | 0.00 | 0.00 | 83 | 1007.4 |
| 20260506045007 | 51 | 4 | 4.0 | 6.0 | 0.00 | 0.00 | 0.00 | 82 | 1007.5 |
| 20260506044505 | 51 | 6 | 2.0 | 6.0 | 0.00 | 0.00 | 0.00 | 82 | 1007.5 |
| 20260506044005 | 51 | 9 | 1.0 | 5.0 | 0.00 | 0.00 | 0.00 | 82 | 1007.5 |
| 20260506043505 | 51 | 12 | 2.0 | 5.0 | 0.00 | 0.00 | 0.00 | 82 | 1007.5 |
| 20260506043005 | 51 | 9 | 1.0 | 5.0 | 0.00 | 0.00 | 0.00 | 81 | 1007.5 |
| 20260506042505 | 51 | 7 | 2.0 | 5.0 | 0.00 | 0.00 | 0.00 | 81 | 1007.6 |
| 20260506042005 | 51 | 6 | 2.0 | 4.0 | 0.00 | 0.00 | 0.00 | 80 | 1007.5 |
| 20260506041505 | 51 | 1 | 3.0 | 6.0 | 0.00 | 0.00 | 0.00 | 80 | 1007.5 |
| 20260506041005 | 51 | 357 | 1.0 | 5.0 | 0.00 | 0.00 | 0.00 | 79 | 1007.5 |
| 20260506040505 | 51 | 3 | 0.0 | 4.0 | 0.00 | 0.00 | 0.00 | 79 | 1007.5 |
| 20260506040005 | 51 | 13 | 1.0 | 5.0 | 0.00 | 0.00 | 0.00 | 78 | 1007.5 |
| 20260506035505 | 51 | 14 | 2.0 | 6.0 | 0.00 | 0.00 | 0.00 | 78 | 1007.5 |
| 20260506035006 | 51 | 6 | 1.0 | 6.0 | 0.00 | 0.00 | 0.00 | 78 | 1007.4 |
| 20260506034505 | 51 | 18 | 1.0 | 4.0 | 0.00 | 0.00 | 0.00 | 78 | 1007.5 |
| 20260506034005 | 51 | 22 | 0.0 | 6.0 | 0.00 | 0.00 | 0.00 | 78 | 1007.5 |
| 20260506033506 | 51 | 30 | 2.0 | 5.0 | 0.00 | 0.00 | 0.00 | 78 | 1007.5 |
| 20260506033005 | 51 | 27 | 2.0 | 6.0 | 0.00 | 0.00 | 0.00 | 78 | 1007.5 |
| 20260506032505 | 51 | 17 | 3.0 | 6.0 | 0.00 | 0.00 | 0.00 | 78 | 1007.5 |
| 20260506032005 | 51 | 12 | 2.0 | 6.0 | 0.00 | 0.00 | 0.00 | 79 | 1007.6 |
| 20260506031505 | 51 | 354 | 2.0 | 4.0 | 0.00 | 0.00 | 0.00 | 79 | 1007.6 |
| 20260506031005 | 52 | 336 | 1.0 | 4.0 | 0.00 | 0.00 | 0.00 | 80 | 1007.6 |
| 20260506030505 | 52 | 318 | 0.0 | 3.0 | 0.00 | 0.00 | 0.00 | 80 | 1007.7 |
| 20260506030005 | 52 | 1 | 1.0 | 4.0 | 0.00 | 0.01 | 0.00 | 80 | 1007.7 |
| 20260506025505 | 52 | 14 | 2.0 | 5.0 | 0.00 | 0.02 | 0.00 | 80 | 1007.8 |
| 20260506025006 | 52 | 7 | 1.0 | 6.0 | 0.00 | 0.02 | 0.00 | 80 | 1007.8 |
| 20260506024505 | 52 | 0 | 2.0 | 5.0 | 0.00 | 0.02 | 0.00 | 80 | 1007.9 |
| 20260506024005 | 52 | 12 | 2.0 | 6.0 | 0.00 | 0.02 | 0.00 | 80 | 1007.9 |
| 20260506023505 | 52 | 16 | 0.0 | 6.0 | 0.00 | 0.02 | 0.00 | 80 | 1007.9 |
| 20260506023006 | 52 | 41 | 0.0 | 3.0 | 0.00 | 0.02 | 0.00 | 80 | 1007.9 |
| 20260506022506 | 52 | 43 | 2.0 | 6.0 | 0.00 | 0.03 | 0.00 | 79 | 1007.9 |
| 20260506022006 | 52 | 59 | 2.0 | 5.0 | 0.00 | 0.03 | 0.00 | 80 | 1007.9 |
| 20260506021506 | 52 | 18 | 0.0 | 2.0 | 0.00 | 0.04 | 0.00 | 81 | 1008.0 |
| 20260506021005 | 52 | 15 | 1.0 | 4.0 | 0.00 | 0.06 | 0.00 | 81 | 1008.1 |
| 20260506020506 | 52 | 23 | 1.0 | 6.0 | 0.00 | 0.08 | 0.00 | 81 | 1008.0 |
| 20260506020005 | 52 | 35 | 1.0 | 6.0 | 0.00 | 0.10 | 0.00 | 81 | 1008.0 |
| 20260506015505 | 52 | 43 | 2.0 | 3.0 | 0.00 | 0.10 | 0.00 | 82 | 1008.1 |
| 20260506015006 | 52 | 40 | 0.0 | 4.0 | 0.00 | 0.11 | 0.00 | 82 | 1008.1 |
| 20260506014505 | 52 | 30 | 1.0 | 5.0 | 0.00 | 0.12 | 0.00 | 82 | 1008.1 |
| 20260506014005 | 52 | 29 | 3.0 | 6.0 | 0.00 | 0.12 | 0.00 | 82 | 1008.1 |
| 20260506013505 | 52 | 29 | 1.0 | 7.0 | 0.00 | 0.12 | 0.00 | 82 | 1008.2 |
| 20260506013006 | 52 | 26 | 2.0 | 4.0 | 0.00 | 0.12 | 0.00 | 83 | 1008.2 |
| 20260506012506 | 52 | 18 | 2.0 | 4.0 | 0.00 | 0.13 | 0.00 | 82 | 1008.1 |
| 20260506012005 | 52 | 10 | 1.0 | 4.0 | 0.00 | 0.13 | 0.00 | 82 | 1008.2 |
| 20260506011505 | 52 | 7 | 2.0 | 6.0 | 0.00 | 0.13 | 0.00 | 83 | 1008.1 |
| 20260506011005 | 52 | 10 | 2.0 | 5.0 | 0.00 | 0.13 | 0.00 | 83 | 1008.1 |
| 20260506010505 | 52 | 13 | 2.0 | 6.0 | 0.00 | 0.13 | 0.00 | 83 | 1008.2 |
| 20260506010005 | 52 | 14 | 1.0 | 6.0 | 0.00 | 0.13 | 0.00 | 83 | 1008.2 |
| 20260506005505 | 52 | 23 | 1.0 | 4.0 | 0.00 | 0.13 | 0.00 | 84 | 1008.3 |
| 20260506005006 | 52 | 28 | 2.0 | 6.0 | 0.00 | 0.14 | 0.00 | 83 | 1008.3 |
| 20260506004505 | 53 | 26 | 2.0 | 5.0 | 0.00 | 0.14 | 0.00 | 84 | 1008.3 |
| 20260506004005 | 53 | 17 | 2.0 | 6.0 | 0.00 | 0.15 | 0.00 | 84 | 1008.4 |
| 20260506003505 | 53 | 8 | 2.0 | 6.0 | 0.00 | 0.16 | 0.00 | 83 | 1008.4 |
| 20260506003005 | 53 | 14 | 1.0 | 6.0 | 0.00 | 0.17 | 0.00 | 83 | 1008.4 |
| 20260506002505 | 53 | 15 | 2.0 | 4.0 | 0.00 | 0.18 | 0.00 | 84 | 1008.4 |
| 20260506002005 | 53 | 9 | 1.0 | 5.0 | 0.00 | 0.18 | 0.00 | 83 | 1008.5 |
| 20260506001505 | 53 | 16 | 3.0 | 6.0 | 0.00 | 0.19 | 0.00 | 84 | 1008.5 |
| 20260506001005 | 53 | 23 | 3.0 | 6.0 | 0.00 | 0.19 | 0.00 | 84 | 1008.5 |
| 20260506000505 | 53 | 23 | 1.0 | 3.0 | 0.00 | 0.19 | 0.00 | 84 | 1008.5 |
| 20260506000005 | 53 | 10 | 1.0 | 6.0 | 0.00 | 0.20 | 0.00 | 83 | 1008.6 |
| 20260505235505 | 53 | 32 | 2.0 | 5.0 | 0.00 | 0.20 | 0.00 | 83 | 1008.5 |
| 20260505235006 | 53 | 41 | 4.0 | 8.0 | 0.00 | 0.20 | 0.00 | 83 | 1008.6 |
| 20260505234505 | 53 | 46 | 2.0 | 4.0 | 0.00 | 0.21 | 0.00 | 84 | 1008.6 |
| 20260505234005 | 53 | 341 | 0.0 | 2.0 | 0.00 | 0.22 | 0.00 | 84 | 1008.7 |
| 20260505233505 | 53 | 0 | 2.0 | 3.0 | 0.00 | 0.25 | 0.00 | 84 | 1008.7 |
| 20260505233005 | 53 | 2 | 1.0 | 3.0 | 0.00 | 0.26 | 0.00 | 84 | 1008.7 |
| 20260505232505 | 53 | 23 | 3.0 | 7.0 | 0.00 | 0.26 | 0.00 | 84 | 1008.7 |
| 20260505232005 | 53 | 17 | 2.0 | 4.0 | 0.00 | 0.26 | 0.00 | 84 | 1008.7 |
| 20260505231505 | 53 | 13 | 1.0 | 5.0 | 0.00 | 0.26 | 0.00 | 84 | 1008.7 |
| 20260505231005 | 54 | 21 | 1.0 | 3.0 | 0.00 | 0.26 | 0.00 | 84 | 1008.7 |
| 20260505230505 | 54 | 27 | 1.0 | 3.0 | 0.00 | 0.26 | 0.00 | 84 | 1008.7 |
| 20260505230005 | 54 | 30 | 1.0 | 5.0 | 0.00 | 0.26 | 0.00 | 84 | 1008.8 |
| 20260505225505 | 54 | 37 | 2.0 | 7.0 | 0.00 | 0.26 | 0.00 | 84 | 1008.7 |
| 20260505225006 | 54 | 25 | 2.0 | 3.0 | 0.00 | 0.26 | 0.00 | 83 | 1008.8 |
| 20260505224505 | 54 | 23 | 1.0 | 4.0 | 0.00 | 0.26 | 0.00 | 83 | 1008.8 |
| 20260505224005 | 54 | 33 | 0.0 | 7.0 | 0.00 | 0.26 | 0.00 | 83 | 1008.9 |
| 20260505223505 | 54 | 38 | 3.0 | 6.0 | 0.00 | 0.26 | 0.00 | 83 | 1008.9 |
| 20260505223006 | 54 | 34 | 0.0 | 4.0 | 0.00 | 0.26 | 0.00 | 83 | 1008.8 |
| 20260505222506 | 54 | 18 | 3.0 | 6.0 | 0.00 | 0.26 | 0.00 | 83 | 1008.8 |
| 20260505222005 | 54 | 28 | 2.0 | 5.0 | 0.00 | 0.26 | 0.00 | 83 | 1008.9 |
| 20260505221506 | 54 | 27 | 2.0 | 5.0 | 0.00 | 0.26 | 0.00 | 84 | 1008.9 |
| 20260505221007 | 54 | 26 | 0.0 | 1.0 | 0.00 | 0.26 | 0.00 | 84 | 1008.9 |
| 20260505220506 | 54 | 6 | 3.0 | 8.0 | 0.00 | 0.26 | 0.00 | 84 | 1009.0 |
| 20260505220006 | 54 | 12 | 2.0 | 5.0 | 0.00 | 0.26 | 0.00 | 85 | 1009.0 |
| 20260505215505 | 54 | 27 | 3.0 | 5.0 | 0.00 | 0.26 | 0.26 | 86 | 1009.0 |
| 20260505215007 | 54 | 23 | 4.0 | 6.0 | 0.00 | 0.26 | 0.26 | 87 | 1009.0 |
| 20260505214506 | 54 | 14 | 2.0 | 5.0 | 0.00 | 0.26 | 0.26 | 88 | 1009.1 |
| 20260505214005 | 54 | 7 | 3.0 | 6.0 | 0.00 | 0.26 | 0.26 | 89 | 1009.1 |
| 20260505213506 | 55 | 11 | 0.0 | 3.0 | 0.00 | 0.26 | 0.26 | 89 | 1009.1 |
| 20260505213005 | 55 | 16 | 1.0 | 2.0 | 0.00 | 0.26 | 0.26 | 89 | 1009.2 |
| 20260505212506 | 55 | 10 | 1.0 | 3.0 | 0.00 | 0.26 | 0.26 | 89 | 1009.2 |
| 20260505212005 | 55 | 3 | 0.0 | 2.0 | 0.00 | 0.26 | 0.26 | 90 | 1009.2 |
| 20260505211506 | 55 | 7 | 2.0 | 3.0 | 0.00 | 0.26 | 0.26 | 89 | 1009.2 |
| 20260505211006 | 55 | 355 | 0.0 | 2.0 | 0.00 | 0.26 | 0.26 | 89 | 1009.2 |
| 20260505210506 | 55 | 7 | 1.0 | 3.0 | 0.00 | 0.26 | 0.26 | 89 | 1009.2 |
| 20260505210006 | 55 | 12 | 0.0 | 2.0 | 0.00 | 0.26 | 0.26 | 89 | 1009.3 |
| 20260505205506 | 55 | 23 | 0.0 | 2.0 | 0.00 | 0.26 | 0.26 | 89 | 1009.3 |
| 20260505205007 | 55 | 36 | 0.0 | 0.0 | 0.00 | 0.26 | 0.26 | 89 | 1009.3 |
| 20260505204506 | 55 | 345 | 0.0 | 0.0 | 0.00 | 0.26 | 0.26 | 89 | 1009.3 |
| 20260505204005 | 55 | 348 | 0.0 | 1.0 | 0.00 | 0.26 | 0.26 | 89 | 1009.4 |
| 20260505203505 | 55 | 2 | 1.0 | 3.0 | 0.00 | 0.26 | 0.26 | 89 | 1009.5 |
| 20260505203005 | 55 | 3 | 0.0 | 0.0 | 0.00 | 0.26 | 0.26 | 89 | 1009.4 |
| 20260505202505 | 55 | 3 | 0.0 | 0.0 | 0.00 | 0.26 | 0.26 | 89 | 1009.5 |
| 20260505202005 | 56 | 16 | 0.0 | 1.0 | 0.00 | 0.26 | 0.26 | 89 | 1009.4 |
| 20260505201505 | 56 | 25 | 0.0 | 3.0 | 0.00 | 0.26 | 0.26 | 89 | 1009.3 |
| 20260505201005 | 56 | 31 | 0.0 | 2.0 | 0.00 | 0.26 | 0.26 | 89 | 1009.3 |
| 20260505200505 | 56 | 48 | 0.0 | 0.0 | 0.00 | 0.26 | 0.26 | 89 | 1009.3 |
| 20260505200005 | 56 | 26 | 0.0 | 1.0 | 0.00 | 0.26 | 0.26 | 88 | 1009.3 |
| 20260505195505 | 56 | 10 | 1.0 | 3.0 | 0.00 | 0.26 | 0.26 | 88 | 1009.2 |
| 20260505195006 | 56 | 9 | 0.0 | 2.0 | 0.00 | 0.26 | 0.26 | 88 | 1009.2 |
| 20260505194505 | 56 | 13 | 0.0 | 1.0 | 0.00 | 0.26 | 0.26 | 88 | 1009.2 |
| 20260505194005 | 56 | 14 | 0.0 | 2.0 | 0.00 | 0.26 | 0.26 | 88 | 1009.2 |
| 20260505193505 | 56 | 6 | 0.0 | 2.0 | 0.00 | 0.26 | 0.26 | 88 | 1009.1 |
| 20260505193005 | 56 | 2 | 1.0 | 3.0 | 0.00 | 0.26 | 0.26 | 88 | 1009.0 |
| 20260505192505 | 56 | 12 | 0.0 | 3.0 | 0.00 | 0.26 | 0.26 | 88 | 1009.0 |
| 20260505192005 | 56 | 10 | 0.0 | 3.0 | 0.00 | 0.26 | 0.26 | 88 | 1009.0 |
| 20260505191505 | 56 | 6 | 0.0 | 6.0 | 0.00 | 0.26 | 0.26 | 88 | 1009.0 |
| 20260505191005 | 56 | 15 | 1.0 | 5.0 | 0.00 | 0.26 | 0.26 | 88 | 1008.9 |
| 20260505190505 | 56 | 22 | 0.0 | 2.0 | 0.00 | 0.26 | 0.26 | 88 | 1008.9 |
| 20260505190005 | 56 | 23 | 1.0 | 4.0 | 0.00 | 0.26 | 0.26 | 88 | 1008.9 |
| 20260505185506 | 56 | 15 | 1.0 | 4.0 | 0.00 | 0.26 | 0.26 | 88 | 1008.9 |
| 20260505185007 | 56 | 28 | 2.0 | 3.0 | 0.00 | 0.26 | 0.26 | 88 | 1008.9 |
| 20260505184506 | 57 | 31 | 0.0 | 3.0 | 0.00 | 0.26 | 0.26 | 87 | 1008.9 |
| 20260505184006 | 57 | 30 | 0.0 | 2.0 | 0.00 | 0.26 | 0.26 | 87 | 1008.9 |
| 20260505183506 | 57 | 16 | 0.0 | 2.0 | 0.00 | 0.26 | 0.26 | 87 | 1008.9 |
| 20260505183006 | 57 | 12 | 0.0 | 3.0 | 0.00 | 0.26 | 0.26 | 87 | 1008.8 |
| 20260505182505 | 57 | 13 | 1.0 | 3.0 | 0.00 | 0.26 | 0.26 | 87 | 1008.9 |
| 20260505182005 | 57 | 22 | 1.0 | 2.0 | 0.00 | 0.26 | 0.26 | 87 | 1008.9 |
| 20260505181505 | 57 | 22 | 0.0 | 3.0 | 0.00 | 0.26 | 0.26 | 87 | 1008.9 |
| 20260505181005 | 57 | 10 | 1.0 | 2.0 | 0.00 | 0.26 | 0.26 | 86 | 1008.9 |
| 20260505180505 | 57 | 9 | 0.0 | 3.0 | 0.00 | 0.26 | 0.26 | 87 | 1009.0 |
| 20260505180006 | 57 | 356 | 0.0 | 2.0 | 0.00 | 0.26 | 0.26 | 86 | 1008.9 |
| 20260505175505 | 57 | 63 | 2.0 | 4.0 | 0.00 | 0.26 | 0.26 | 86 | 1008.9 |
| 20260505175006 | 57 | 27 | 1.0 | 3.0 | 0.00 | 0.26 | 0.26 | 86 | 1008.9 |
| 20260505174505 | 57 | 49 | 1.0 | 3.0 | 0.00 | 0.26 | 0.26 | 86 | 1008.9 |
| 20260505174005 | 57 | 44 | 0.0 | 4.0 | 0.00 | 0.26 | 0.26 | 85 | 1009.0 |
| 20260505173505 | 57 | 43 | 0.0 | 4.0 | 0.00 | 0.26 | 0.26 | 85 | 1009.0 |
| 20260505173005 | 57 | 40 | 1.0 | 4.0 | 0.00 | 0.26 | 0.26 | 84 | 1009.1 |
| 20260505172505 | 57 | 38 | 0.0 | 0.0 | 0.00 | 0.26 | 0.26 | 84 | 1009.1 |
| 20260505172005 | 58 | 38 | 0.0 | 0.0 | 0.00 | 0.26 | 0.26 | 84 | 1009.1 |
| 20260505171506 | 58 | 12 | 0.0 | 2.0 | 0.00 | 0.26 | 0.26 | 83 | 1009.0 |
| 20260505171005 | 58 | 9 | 0.0 | 0.0 | 0.00 | 0.26 | 0.26 | 83 | 1009.0 |
| 20260505170505 | 58 | 12 | 0.0 | 1.0 | 0.00 | 0.26 | 0.26 | 83 | 1009.1 |
| 20260505170006 | 58 | 13 | 0.0 | 0.0 | 0.00 | 0.26 | 0.26 | 82 | 1009.1 |
| 20260505165506 | 58 | 16 | 0.0 | 0.0 | 0.00 | 0.26 | 0.26 | 82 | 1009.1 |
| 20260505165007 | 58 | 15 | 0.0 | 0.0 | 0.00 | 0.26 | 0.26 | 82 | 1009.1 |
| 20260505164506 | 58 | 21 | 0.0 | 1.0 | 0.00 | 0.26 | 0.26 | 81 | 1009.1 |
| 20260505164006 | 58 | 32 | 0.0 | 2.0 | 0.00 | 0.26 | 0.26 | 81 | 1009.1 |
| 20260505163506 | 58 | 50 | 0.0 | 2.0 | 0.00 | 0.26 | 0.26 | 81 | 1009.1 |
| 20260505163007 | 58 | 59 | 0.0 | 2.0 | 0.00 | 0.26 | 0.26 | 81 | 1009.1 |
| 20260505162506 | 58 | 66 | 0.0 | 2.0 | 0.00 | 0.26 | 0.26 | 81 | 1009.1 |
| 20260505162006 | 58 | 70 | 0.0 | 0.0 | 0.00 | 0.26 | 0.26 | 81 | 1009.1 |
| 20260505161506 | 58 | 70 | 0.0 | 0.0 | 0.00 | 0.26 | 0.26 | 81 | 1009.2 |
| 20260505161005 | 58 | 62 | 0.0 | 0.0 | 0.00 | 0.26 | 0.26 | 81 | 1009.2 |
| 20260505160505 | 58 | 31 | 0.0 | 0.0 | 0.00 | 0.26 | 0.26 | 80 | 1009.2 |